Terug naar catalogus

ATLAS CENTAUR 2 DEB

ActiefLEO
NORAD 701·DEBRIS·🇺🇸 United States

Gelanceerd Nov 27, 1963 vanaf Cape Canaveral Space Force Station

Loading…

Volgende Passages (komende 24 uur)

TLE

VersSource: Space-Track

Epoch: Sep 14, 2026, 22:05 UTC

1 00701U 63047G   26257.92019655  .00000686  00000-0  20029-3 0  9993
2 00701  30.0139 343.9219 0503583 316.1257  40.0368 13.83473329122656

Volg ATLAS CENTAUR 2 DEB in realtime met AllMySat

Download on the App Store